Wind_Speed
36 36 34 33 32 32 30 31 27 26 27 27 26 25 20 20 18 19 19 18 17 18 15 14 15 13 13 12 12 14 13 12 7 6 12 12 15 16 18 16 19 18 17 14 14
36 36 36 35 34 31 31 30 30 27 27 27 26 26 24 21 18 15 17 17 15 18 15 16 16 14 15 14 14 17 16 14 7 14 14 15 14 16 19 19 21 21 19 18 17
38 37 35 37 35 32 32 31 29 28 27 26 26 24 25 22 20 17 15 15 15 17 13 16 16 15 16 16 16 17 15 10 11 13 13 15 16 19 20 21 21 21 18 15 15
25 31 43 40 40 43 37 32 31 27 27 26 26 23 25 20 11 8 8 12 15 15 14 14 15 17 17 19 19 20 15 14 12 15 15 16 19 20 21 21 25 23 16 13 18
33 33 32 37 35 36 40 37 33 28 26 27 27 24 24 22 18 15 11 10 13 16 14 13 17 17 19 17 19 24 20 18 14 13 14 17 20 21 25 26 25 23 15 15 19
31 30 27 33 33 36 41 41 35 29 28 28 29 24 26 22 20 17 23 23 20 18 20 18 18 18 18 20 20 21 22 21 19 15 16 20 22 25 21 24 26 21 14 16 16
32 30 26 24 31 31 36 44 38 31 28 29 30 29 31 17 21 14 24 24 24 24 22 20 20 22 21 20 21 21 24 23 21 21 21 23 28 24 20 20 21 19 14 16 15
34 31 28 24 25 31 32 31 40 36 24 27 30 33 38 19 21 16 25 21 21 20 20 22 23 25 24 21 20 19 21 22 8 8 11 17 26 17 14 17 17 16 14 13 9
32 32 34 35 31 35 30 36 31 30 24 29 31 33 33 25 25 24 23 22 23 21 19 21 25 25 26 22 22 20 21 16 11 7 10 12 20 16 18 16 17 18 15 13 10
32 31 30 30 30 33 32 31 30 32 31 34 33 30 25 14 8 18 26 27 24 27 24 26 27 29 31 28 27 22 18 21 17 11 12 18 17 11 15 14 15 17 16 11 10
30 30 29 28 29 27 29 32 31 32 36 36 32 27 22 22 18 22 18 20 26 31 31 30 31 39 36 32 24 18 14 15 19 14 16 16 18 8 13 16 15 11 10 10 8
31 28 27 26 26 25 26 27 28 28 35 33 35 38 31 33 27 17 25 22 22 32 34 31 41 35 29 28 24 22 21 21 19 14 14 15 17 16 16 16 15 15 13 12 7
30 28 26 26 24 23 23 23 23 27 31 35 32 36 33 37 34 25 23 24 24 28 36 38 24 35 33 32 30 25 24 21 18 15 16 15 22 17 16 19 18 14 13 14 11
31 28 25 24 22 22 21 19 18 21 20 33 27 25 27 33 37 26 33 29 27 26 30 31 40 19 22 39 31 31 23 17 18 19 13 17 11 22 18 23 20 17 12 11 10
31 28 25 23 19 19 20 14 12 12 6 7 5 11 8 12 15 21 31 39 34 26 25 25 31 30 19 24 33 31 19 18 15 20 24 22 13 19 19 21 23 19 14 10 10
30 28 25 19 16 18 17 12 5 4 8 3 5 8 10 9 12 16 25 41 39 31 24 20 23 22 34 30 18 19 16 13 16 20 8 23 19 13 18 24 24 20 17 12 13
28 27 26 19 15 16 15 13 8 9 4 1 1 7 9 10 10 15 15 42 38 31 29 24 25 17 15 15 21 25 17 1 2 2 6 13 16 25 21 22 17 12 15 12 13
25 27 24 20 17 17 18 19 13 4 17 13 7 6 5 5 6 16 5 28 37 28 18 25 11 29 32 27 17 27 26 9 6 4 4 9 8 11 7 8 16 18 16 16 13
26 27 27 19 19 17 22 23 9 17 8 10 15 7 1 5 1 10 9 7 32 33 18 15 17 16 14 29 33 23 18 25 17 3 2 8 12 17 25 25 16 18 11 15 15
27 26 25 20 20 20 26 32 21 11 15 21 8 6 6 4 3 4 6 7 12 33 35 18 6 4 9 13 25 33 14 16 11 5 5 4 6 11 9 20 13 9 13 13 15
24 23 24 22 20 30 38 31 26 21 9 17 10 8 5 5 7 6 5 8 8 8 25 34 21 13 12 10 14 23 31 24 14 13 4 2 6 10 14 5 8 8 9 9 12
22 27 25 23 28 36 40 32 31 28 27 22 25 19 17 15 8 6 6 6 8 6 7 17 10 27 35 24 12 11 13 25 23 8 10 11 16 12 10 3 6 8 10 11 11
28 30 29 29 34 41 34 37 32 29 29 32 26 20 24 23 14 6 2 4 4 2 5 3 2 1 4 13 15 14 18 27 22 20 26 13 7 9 13 10 12 15 15 16 16
33 27 39 34 42 36 42 36 33 31 31 32 23 18 22 17 13 11 16 8 11 7 2 6 2 3 3 3 9 13 9 13 26 30 21 27 25 25 20 23 24 20 18 17 19
37 43 30 29 47 41 39 35 35 32 24 21 36 31 18 9 9 15 17 14 21 14 9 3 6 8 10 11 15 19 20 18 20 22 30 29 32 29 26 26 26 24 25 24 24
42 45 46 32 39 43 35 39 35 29 28 24 23 26 27 31 29 20 14 9 9 8 19 10 5 8 11 11 16 19 19 23 27 26 31 28 32 27 24 24 22 24 22 24 26
45 48 38 34 38 34 43 42 39 31 30 25 17 13 13 17 15 19 21 16 16 13 11 10 8 10 8 9 14 15 5 7 15 21 21 30 34 32 29 29 27 27 30 29 28
Wind_Direction
278 276 273 273 271 270 271 270 267 264 266 268 269 272 272 272 265 260 259 254 247 255 255 256 244 236 228 224 233 224 227 217 241 289 305 294 277 290 306 317 330 321 317 319 313
280 279 277 273 270 270 270 268 268 265 262 264 266 269 270 267 269 262 251 252 248 248 249 245 235 230 220 224 222 216 229 224 261 306 299 286 285 296 295 312 327 322 319 311 306
279 276 276 274 269 271 268 268 263 265 264 264 263 265 269 266 268 267 256 249 243 243 232 227 230 226 217 215 219 225 233 245 258 296 305 289 297 299 307 312 319 325 331 315 305
301 302 271 270 268 270 268 262 265 262 263 265 263 261 263 262 266 256 245 229 232 231 213 219 232 228 219 221 231 234 239 262 259 275 291 293 300 305 307 317 319 325 326 320 316
301 302 297 269 272 268 263 263 258 262 265 265 264 262 258 252 243 235 231 218 215 225 217 230 238 233 228 232 231 231 241 250 262 265 278 288 305 306 309 313 314 325 329 320 330
300 304 298 274 274 274 265 260 254 254 262 265 268 264 262 253 254 237 237 235 233 235 237 247 244 235 233 229 222 231 241 251 252 256 274 284 295 294 313 313 306 319 325 323 335
292 292 294 301 277 277 291 262 253 248 252 263 269 267 260 250 257 230 233 234 233 234 239 238 236 227 229 232 234 244 254 257 255 255 269 282 285 290 310 318 312 320 319 322 343
283 282 287 289 283 273 273 277 257 245 247 264 270 271 265 254 255 241 239 233 232 228 226 228 230 231 223 225 231 241 257 271 268 246 279 276 285 319 307 320 315 314 321 328 337
286 285 281 285 278 281 281 271 273 262 251 273 268 271 278 263 257 243 238 233 224 217 215 220 223 225 225 224 233 241 251 256 245 251 301 299 276 292 307 320 308 311 316 324 323
288 288 288 285 286 283 274 268 277 271 271 269 269 269 264 254 243 240 234 233 222 213 210 216 219 219 222 220 225 235 249 252 248 256 281 291 286 296 292 304 310 303 314 318 316
288 288 290 289 287 287 284 273 279 274 263 262 261 263 265 256 250 234 232 234 219 217 214 214 218 221 226 231 237 244 250 246 240 250 286 283 290 289 302 293 303 307 303 312 313
289 287 287 288 288 290 288 287 286 282 269 262 264 266 262 257 248 237 231 230 222 221 212 216 227 230 228 237 234 241 249 247 240 243 289 283 287 290 298 301 311 296 279 280 300
289 287 285 284 286 286 283 285 292 295 296 268 260 263 260 256 255 225 232 227 223 223 216 219 235 230 226 230 232 237 242 247 241 250 284 289 282 286 283 294 295 306 282 267 285
290 288 285 281 282 278 280 283 288 304 305 285 282 267 255 259 255 243 222 233 229 228 222 226 222 237 230 232 231 239 236 242 248 273 281 296 276 287 285 285 289 290 277 264 264
287 287 284 280 275 274 270 279 284 307 319 299 304 257 246 257 248 234 220 220 226 223 218 216 228 217 207 226 223 238 241 233 257 278 284 279 266 277 278 278 281 282 289 269 243
282 284 282 274 265 261 260 254 236 261 250 323 317 310 296 242 232 219 208 211 223 227 229 231 235 229 234 239 232 230 234 251 271 273 248 269 245 280 262 277 289 278 270 286 225
277 277 274 267 248 258 246 222 218 227 263 274 137 319 297 266 253 226 216 203 202 207 218 223 228 206 204 221 221 227 225 213 260 215 231 248 230 256 275 279 281 273 264 259 233
268 266 264 260 237 243 233 208 226 285 239 254 290 311 265 281 274 206 234 209 203 211 205 210 230 225 221 222 211 213 210 176 197 195 243 208 229 248 270 270 281 276 258 233 226
258 258 257 247 231 235 233 215 226 223 267 316 260 311 294 204 73 207 230 260 217 208 199 200 230 225 227 236 225 220 214 229 246 297 270 240 247 259 276 283 286 263 234 224 230
260 257 250 229 226 235 236 232 224 229 242 265 305 314 345 28 147 137 157 26 232 224 224 220 236 230 237 224 232 230 240 208 207 175 222 241 237 235 280 303 274 237 241 230 224
251 252 246 226 218 230 232 237 244 216 236 246 253 261 307 357 47 61 85 84 95 188 221 229 231 229 218 202 229 214 225 239 248 244 193 206 250 274 283 263 272 227 224 209 206
241 239 244 225 235 235 230 236 239 236 231 242 263 253 268 278 315 5 34 71 73 81 131 210 239 244 244 233 216 245 255 242 231 236 237 246 245 245 273 253 253 236 227 234 222
238 237 235 241 238 234 233 240 246 245 227 235 247 261 269 273 286 306 301 165 70 81 63 92 123 287 254 238 247 256 264 250 246 261 252 239 246 282 269 280 259 237 243 252 256
230 238 236 239 244 242 232 235 242 249 243 230 239 250 256 260 271 255 256 247 237 10 0 296 338 165 224 295 293 285 259 274 253 249 261 260 267 261 244 259 275 260 261 270 267
230 230 235 229 230 230 237 235 234 241 249 244 245 242 241 252 260 270 277 276 253 253 290 290 284 286 281 297 285 280 284 280 281 281 259 272 274 278 274 275 269 271 262 266 259
227 231 231 237 238 227 227 235 235 242 239 251 251 248 253 260 259 255 257 243 261 219 234 271 276 300 311 301 281 306 281 268 272 278 280 289 284 282 285 276 260 250 261 269 258
226 232 232 241 232 235 232 232 240 241 251 253 259 263 242 253 257 260 236 246 233 238 252 279 264 275 298 306 308 289 31 289 284 271 282 287 287 282 282 280 273 271 266 272 264
Height
3104 3103 3103 3103 3102 3100 3101 3100 3097 3096 3096 3097 3098 3098 3095 3097 3097 3097 3100 3102 3103 3105 3105 3107 3107 3109 3109 3109 3110 3110 3111 3110 3111 3111 3110 3109 3108 3107 3105 3103 3102 3099 3096 3093 3091
3098 3098 3098 3097 3096 3096 3096 3094 3094 3091 3090 3091 3091 3093 3091 3091 3093 3093 3095 3095 3098 3101 3102 3103 3103 3106 3107 3106 3107 3107 3107 3108 3109 3108 3107 3106 3105 3104 3102 3100 3100 3097 3093 3091 3088
3091 3090 3091 3091 3091 3090 3090 3091 3087 3087 3085 3084 3085 3086 3088 3087 3089 3088 3089 3090 3093 3096 3097 3099 3101 3103 3104 3104 3104 3104 3104 3106 3106 3105 3104 3103 3102 3100 3099 3098 3097 3096 3091 3088 3085
3085 3083 3083 3083 3083 3084 3084 3084 3083 3080 3080 3079 3079 3080 3082 3084 3089 3084 3085 3086 3089 3092 3093 3095 3097 3099 3101 3101 3102 3102 3103 3103 3104 3102 3101 3100 3099 3097 3096 3095 3095 3094 3089 3085 3083
3080 3076 3074 3076 3075 3076 3077 3078 3076 3075 3075 3073 3073 3074 3077 3079 3083 3082 3083 3084 3086 3089 3090 3092 3094 3096 3097 3098 3098 3098 3100 3100 3101 3100 3099 3098 3097 3094 3092 3092 3092 3092 3088 3084 3080
3075 3072 3070 3070 3070 3069 3069 3071 3070 3067 3068 3067 3067 3068 3070 3074 3075 3077 3078 3081 3083 3085 3087 3088 3090 3093 3094 3094 3095 3095 3097 3097 3097 3097 3096 3095 3093 3091 3091 3090 3089 3089 3087 3083 3080
3070 3067 3065 3064 3064 3063 3062 3063 3064 3062 3059 3061 3061 3060 3062 3069 3069 3072 3071 3074 3077 3079 3083 3084 3085 3087 3089 3091 3092 3093 3093 3093 3094 3095 3093 3092 3089 3088 3089 3088 3086 3086 3084 3081 3077
3064 3063 3061 3061 3061 3059 3058 3058 3057 3053 3051 3055 3055 3054 3051 3062 3063 3067 3066 3069 3071 3074 3077 3079 3080 3082 3084 3088 3089 3090 3090 3090 3090 3090 3091 3090 3085 3087 3086 3085 3084 3084 3083 3080 3078
3058 3057 3056 3056 3055 3053 3051 3051 3048 3048 3046 3048 3049 3050 3048 3053 3056 3058 3061 3063 3067 3069 3071 3073 3074 3077 3082 3084 3085 3086 3086 3087 3088 3088 3088 3087 3083 3083 3083 3083 3082 3081 3080 3079 3076
3053 3051 3051 3050 3047 3045 3046 3045 3042 3042 3042 3043 3043 3048 3049 3051 3050 3051 3054 3057 3061 3063 3066 3067 3069 3071 3075 3078 3077 3082 3083 3083 3084 3087 3085 3084 3080 3081 3080 3079 3080 3079 3079 3078 3074
3047 3047 3046 3045 3043 3042 3040 3040 3040 3037 3035 3038 3037 3039 3043 3045 3046 3048 3049 3051 3054 3057 3058 3061 3062 3057 3065 3072 3076 3080 3080 3080 3081 3083 3082 3079 3077 3077 3077 3075 3076 3077 3077 3075 3073
3041 3041 3042 3040 3040 3038 3035 3033 3033 3030 3027 3029 3031 3029 3036 3038 3039 3044 3045 3048 3048 3050 3054 3058 3051 3059 3067 3072 3073 3075 3076 3076 3078 3080 3079 3076 3073 3073 3073 3073 3072 3073 3073 3074 3072
3035 3035 3037 3036 3036 3035 3032 3030 3029 3025 3020 3019 3023 3022 3026 3027 3030 3038 3040 3041 3044 3045 3048 3049 3053 3057 3061 3065 3068 3070 3070 3074 3076 3076 3075 3074 3070 3069 3070 3070 3070 3069 3069 3070 3070
3029 3030 3030 3032 3035 3031 3028 3029 3027 3024 3020 3014 3013 3014 3016 3015 3017 3030 3034 3038 3039 3041 3045 3047 3051 3053 3054 3058 3064 3065 3067 3071 3073 3075 3073 3072 3066 3066 3066 3066 3066 3067 3067 3067 3068
3024 3024 3026 3026 3029 3028 3027 3027 3026 3026 3026 3013 3010 3009 3009 3013 3015 3016 3026 3029 3031 3037 3040 3040 3043 3049 3049 3052 3058 3061 3066 3068 3071 3071 3071 3068 3069 3061 3062 3061 3062 3063 3064 3065 3066
3019 3018 3019 3023 3025 3023 3025 3025 3027 3029 3020 3010 3009 3009 3010 3009 3009 3010 3012 3020 3029 3033 3034 3039 3042 3046 3049 3052 3056 3061 3063 3065 3067 3067 3065 3064 3066 3055 3057 3058 3057 3058 3060 3062 3063
3013 3013 3013 3017 3021 3019 3022 3024 3028 3021 3015 3012 3009 3008 3007 3006 3008 3009 3010 3011 3017 3025 3028 3035 3036 3041 3045 3046 3051 3055 3059 3061 3064 3064 3060 3059 3060 3053 3054 3053 3054 3055 3056 3058 3060
3007 3006 3009 3012 3015 3015 3019 3022 3018 3013 3012 3008 3008 3007 3006 3006 3006 3007 3008 3010 3014 3018 3023 3030 3033 3034 3038 3041 3046 3047 3051 3053 3061 3061 3056 3055 3052 3050 3050 3050 3051 3051 3051 3053 3056
2999 3000 3002 3007 3009 3011 3014 3013 3010 3011 3011 3009 3008 3006 3005 3005 3006 3006 3009 3011 3012 3014 3021 3024 3027 3029 3031 3036 3042 3045 3045 3052 3052 3053 3054 3050 3047 3047 3046 3046 3046 3045 3046 3050 3053
2991 2992 2995 3001 3003 3007 3007 3002 3004 3008 3010 3009 3009 3008 3006 3005 3006 3007 3009 3010 3011 3013 3017 3020 3023 3025 3028 3031 3035 3039 3044 3047 3047 3051 3051 3044 3044 3044 3044 3043 3043 3042 3044 3046 3050
2985 2985 2990 2995 2998 2999 2994 2996 2999 3008 3010 3009 3008 3008 3007 3006 3007 3007 3010 3010 3009 3008 3012 3018 3021 3024 3026 3028 3031 3035 3036 3039 3041 3041 3040 3042 3038 3040 3040 3042 3041 3042 3042 3044 3047
2980 2979 2983 2988 2992 2987 2988 2991 2997 3004 3006 3007 3004 3006 3006 3006 3008 3009 3010 3010 3010 3010 3011 3014 3016 3018 3021 3025 3028 3031 3033 3034 3034 3036 3034 3033 3033 3039 3041 3041 3041 3041 3043 3044 3045
2972 2973 2977 2981 2979 2980 2984 2988 2993 2997 3000 3003 3002 3002 3003 3005 3010 3009 3008 3010 3010 3011 3012 3013 3014 3015 3017 3022 3024 3024 3026 3028 3029 3030 3026 3031 3032 3036 3037 3038 3040 3040 3041 3042 3043
2967 2967 2970 2971 2969 2975 2979 2983 2986 2989 2992 2997 2997 3000 3001 3002 3004 3005 3007 3008 3010 3010 3011 3011 3012 3014 3017 3019 3019 3019 3020 3022 3024 3023 3024 3022 3028 3032 3034 3035 3037 3039 3039 3040 3040
2956 2955 2958 2959 2964 2967 2972 2978 2981 2984 2988 2991 2992 2996 2999 3001 3001 3003 3003 3004 3007 3010 3010 3011 3011 3013 3015 3017 3015 3015 3015 3017 3018 3020 3019 3021 3021 3026 3028 3028 3029 3030 3032 3033 3034
2944 2947 2952 2953 2958 2963 2966 2968 2975 2980 2985 2986 2989 2992 2995 2996 2999 3002 3002 3003 3003 3005 3007 3009 3010 3010 3012 3013 3013 3011 3013 3013 3013 3013 3012 3013 3013 3019 3021 3021 3022 3023 3025 3025 3026
2934 2939 2946 2947 2952 2956 2958 2963 2968 2976 2979 2983 2986 2988 2989 2991 2994 2995 2995 2997 2999 3000 3004 3005 3007 3008 3007 3009 3008 3009 3007 3007 3006 3007 3008 3006 3008 3012 3012 3014 3016 3017 3018 3018 3019